Showing default

EUTE 5W B, 44624

Orbit data source: Space-Track

EUTE 5W B, 44624 is a payload satellite owned by EutelsatSA (FR) in GEO that was launched on Wed, 09 Oct 2019 UTC via a PROTON-M/BRIZ-M launch vehicle from the Tyuratam Missile And Space Complex (TTMTR). Payload-class satellites include a variety of spacecraft equipped with specific instruments for various scientific and technological missions. These include communications satellites like Starlink; space stations such as the ISS; scientific satellites like the Hubble; Earth observation satellites from companies like Planet Labs, Umbra, and HawkEye 360; GPS; miniature CubeSats for education and research; and military/defense satellites.

Not visible in the next 10 days
Identifier
44624, 2019-067A
Orbit
GEO
Last TLE update
15 hours ago
Origin
Manufacturer
NGIS SSG
Mission
Partially operational Commercial Communications
Bus & Motor
GEOSTAR-2, IHI BT-4?
Mass
2,864 kg wet, ~2,200 kg dry
Launch date (UTC)
2019-10-09 (6 years ago)
Launch vehicle
PROTON-M/BRIZ-M
Launch site
Tyuratam Missile And Space Complex (TTMTR)
Object type
Payload
Rocket body
Debris
Shape & HBR
Box + 2 Pan, Unknown HBR
Radar Cross Section
28.221 m², Large (>1 m²)

Expand to show TLE details & history

TLE from 15 hours ago
0 EUTE 5W B
1 44624U 19067A   25188.70531837 -.00000025  00000-0  00000-0 0  9999
2 44624   0.0746 328.2543 0003414 137.2211  69.3471  1.00271437 20989
Epoch: 2025-07-07T16:55Z
TLE epoch observation values (Epoch: 2025-07-07T16:55:39.507Z)
Latitude
-0.02634°
Longitude
-4.96502°
Altitude
35,781.103 km
Speed
3.075 km/s
True Right ascension
11h 39m 26s
True Declination
0° 01' 35"
Sunlit
Object was in daylight at epoch
Visualization orbit readout
Latitude
0.08009°
Longitude
-138.41171°
Altitude
35,779.815 km
Speed
3.075 km/s
Apparent Right ascension
03h 11m 14s
Apparent Declination
-5° 17' 44"
Sunlit
Object is in daylight
Visualization observer readout
Local Sidereal Time
20:05:19
Azimuth
83.402° E
Elevation
-16.013°
Doppler factor
1
Orbital elements
Apogee altitude
35,802.158 km
Perigee altitude
35,773.367 km
Semi-major axis
42,165.9 km
Eccentricity
0.00034
Inclination
0.0746°
RAAN
328.2543°
Arg. of periapsis
137.2211°
True anomaly
Unknown
Mean anomaly
69.3471°
Eccentric anomaly
Unknown
Mean motion
0.25067 °/min
Orbital period
1,436.16 mins
BSTAR
0
Loading historical data...
44624 neighbors
Loading maneuver chart data...
Loading SW <> Apogee altitude chart data...
Loading historical data...
Loading historical data...
Loading historical data...
Loading historical data...
Loading historical data...
Loading historical data...
Loading historical data...
Other satellites on launch #67 in the year 2019 (2019-10-09 UTC)

EUTE 5W B Visibility

Observer location: undefined°, undefined°

EUTE 5W B is likely not visible in the next few days
Span
Click to sort rows by Start time (UTC) header in descending order
Start Az.
Max El. time (UTC)
Max El. Az.
Max El.
End time (UTC)
End Az.
|